When you browse on this site, cookies collect data to enhance your experience and personalize the content and advertising you see.
Visit our Privacy Policy to learn more. By continuing to use the site, you agree to this use of cookies and data.
  • Em Portugal
  • Lista de países
  • Para 7 dias
  • Temperatura da água
  • Mapas de satélite
  • Mapa do tempo
  • Widgets de tempo
  • user-avatar
    Iniciar Sessão

    Previsão horária em Mendoza

    Hoje, 22 Março, Sexta-feira

    Tempo Temperatura Precipitação Vento Pressão Humidade
    00:00 +19°C° 0 mm 1 m/s 698 mmHg 62%
    01:00 +18°C° 0 mm 1 m/s 698 mmHg 65%
    02:00 +18°C° 0 mm 1 m/s 698 mmHg 65%
    03:00 +16°C° 0 mm 1 m/s 698 mmHg 66%
    04:00 +16°C° 0 mm 1 m/s 698 mmHg 66%
    05:00 +18°C° 0 mm 1 m/s 698 mmHg 63%
    06:00 +19°C° 0 mm 1 m/s 699 mmHg 61%
    07:00 +19°C° 0 mm 1 m/s 699 mmHg 58%
    08:00 +20°C° 0 mm 2 m/s 699 mmHg 53%
    09:00 +21°C° 0 mm 2 m/s 700 mmHg 48%
    10:00 +24°C° 0 mm 2 m/s 700 mmHg 44%
    11:00 +25°C° 0 mm 2 m/s 699 mmHg 41%
    12:00 +26°C° 0 mm 3 m/s 699 mmHg 38%
    13:00 +27°C° 0 mm 3 m/s 699 mmHg 35%
    14:00 +27°C° 0 mm 3 m/s 699 mmHg 34%
    15:00 +28°C° 0 mm 3 m/s 698 mmHg 34%
    16:00 +28°C° 0 mm 3 m/s 698 mmHg 33%
    17:00 +27°C° 0 mm 3 m/s 698 mmHg 36%
    18:00 +25°C° 0 mm 2 m/s 699 mmHg 38%
    19:00 +24°C° 0 mm 2 m/s 699 mmHg 41%
    20:00 +24°C° 0 mm 2 m/s 699 mmHg 43%
    21:00 +23°C° 0 mm 2 m/s 699 mmHg 45%
    22:00 +23°C° 0 mm 2 m/s 699 mmHg 47%
    23:00 +21°C° 0 mm 2 m/s 699 mmHg 50%

    Amanhã, 23 Março, Sábado

    Tempo Temperatura Precipitação Vento Pressão Humidade
    00:00 +21°C° 0 mm 2 m/s 699 mmHg 52%
    01:00 +21°C° 0 mm 1 m/s 698 mmHg 55%
    02:00 +21°C° 0 mm 1 m/s 698 mmHg 57%
    03:00 +20°C° 0 mm 1 m/s 698 mmHg 58%
    04:00 +20°C° 0 mm 1 m/s 697 mmHg 59%
    05:00 +21°C° 0 mm 1 m/s 698 mmHg 55%
    06:00 +22°C° 0 mm 1 m/s 698 mmHg 50%
    07:00 +23°C° 0 mm 1 m/s 698 mmHg 45%
    08:00 +24°C° 0 mm 2 m/s 699 mmHg 42%
    09:00 +26°C° 0 mm 2 m/s 699 mmHg 39%
    10:00 +27°C° 0 mm 2 m/s 699 mmHg 35%
    11:00 +28°C° 0 mm 2 m/s 699 mmHg 33%
    12:00 +29°C° 0 mm 2 m/s 698 mmHg 31%
    13:00 +30°C° 0 mm 2 m/s 698 mmHg 30%
    14:00 +30°C° 0 mm 2 m/s 698 mmHg 29%
    15:00 +30°C° 0 mm 2 m/s 698 mmHg 29%
    16:00 +30°C° 0 mm 2 m/s 698 mmHg 29%
    17:00 +29°C° 0 mm 1 m/s 698 mmHg 33%
    18:00 +28°C° 0 mm 1 m/s 699 mmHg 37%
    19:00 +26°C° 0 mm 1 m/s 699 mmHg 41%
    20:00 +26°C° 0 mm 1 m/s 700 mmHg 44%
    21:00 +25°C° 0 mm 1 m/s 701 mmHg 47%
    22:00 +25°C° 0 mm 1 m/s 701 mmHg 50%
    23:00 +25°C° 0 mm 3 m/s 701 mmHg 49%

    Depois de amanhã, 24 Março, Domingo

    Tempo Temperatura Precipitação Vento Pressão Humidade
    00:00 +23°C° 0 mm 4 m/s 702 mmHg 48%
    01:00 +23°C° 0 mm 6 m/s 702 mmHg 48%
    02:00 +22°C° 0 mm 5 m/s 702 mmHg 41%
    03:00 +22°C° 0 mm 4 m/s 702 mmHg 33%
    04:00 +21°C° 0 mm 4 m/s 701 mmHg 26%
    05:00 +21°C° 0 mm 4 m/s 702 mmHg 26%
    06:00 +20°C° 0 mm 3 m/s 702 mmHg 25%
    07:00 +20°C° 0 mm 3 m/s 702 mmHg 25%
    08:00 +21°C° 0 mm 3 m/s 702 mmHg 24%
    09:00 +22°C° 0 mm 3 m/s 702 mmHg 24%
    10:00 +23°C° 0 mm 4 m/s 702 mmHg 23%
    11:00 +25°C° 0 mm 4 m/s 702 mmHg 23%
    12:00 +25°C° 0 mm 3 m/s 701 mmHg 22%
    13:00 +26°C° 0 mm 3 m/s 701 mmHg 22%
    14:00 +26°C° 0 mm 3 m/s 700 mmHg 23%
    15:00 +26°C° 0 mm 3 m/s 700 mmHg 23%
    16:00 +26°C° 0 mm 3 m/s 699 mmHg 23%
    17:00 +25°C° 0 mm 3 m/s 700 mmHg 25%
    18:00 +24°C° 0 mm 2 m/s 700 mmHg 28%
    19:00 +21°C° 0 mm 2 m/s 701 mmHg 30%
    20:00 +21°C° 0 mm 2 m/s 701 mmHg 32%
    21:00 +21°C° 0 mm 1 m/s 701 mmHg 34%
    22:00 +20°C° 0 mm 1 m/s 701 mmHg 36%
    23:00 +20°C° 0 mm 1 m/s 701 mmHg 38%

    25 Março, Segunda-feira

    Tempo Temperatura Precipitação Vento Pressão Humidade
    00:00 +19°C° 0 mm 1 m/s 700 mmHg 40%
    01:00 +19°C° 0 mm 1 m/s 700 mmHg 42%
    02:00 +17°C° 0 mm 2 m/s 700 mmHg 44%
    03:00 +17°C° 0 mm 2 m/s 700 mmHg 47%
    04:00 +16°C° 0 mm 2 m/s 699 mmHg 49%
    05:00 +17°C° 0 mm 3 m/s 700 mmHg 49%
    06:00 +17°C° 0 mm 3 m/s 700 mmHg 48%
    07:00 +18°C° 0 mm 3 m/s 700 mmHg 47%
    08:00 +19°C° 0 mm 3 m/s 700 mmHg 43%
    09:00 +20°C° 0 mm 3 m/s 700 mmHg 38%
    10:00 +22°C° 0 mm 4 m/s 700 mmHg 34%
    11:00 +24°C° 0 mm 3 m/s 700 mmHg 33%
    12:00 +24°C° 0 mm 3 m/s 699 mmHg 31%
    13:00 +25°C° 0 mm 3 m/s 699 mmHg 30%
    14:00 +25°C° 0 mm 3 m/s 699 mmHg 31%
    15:00 +26°C° 0 mm 2 m/s 698 mmHg 31%
    16:00 +26°C° 0 mm 2 m/s 698 mmHg 31%
    17:00 +25°C° 0 mm 2 m/s 699 mmHg 34%
    18:00 +24°C° 0 mm 3 m/s 699 mmHg 37%
    19:00 +22°C° 0 mm 3 m/s 700 mmHg 40%
    20:00 +21°C° 0 mm 3 m/s 700 mmHg 41%
    21:00 +21°C° 0 mm 4 m/s 700 mmHg 42%
    22:00 +21°C° 0 mm 4 m/s 701 mmHg 43%
    23:00 +20°C° 0 mm 4 m/s 701 mmHg 46%

    26 Março, Terça-feira

    Tempo Temperatura Precipitação Vento Pressão Humidade
    00:00 +20°C° 0 mm 4 m/s 701 mmHg 49%
    01:00 +20°C° 0 mm 4 m/s 700 mmHg 52%
    02:00 +19°C° 0 mm 5 m/s 700 mmHg 55%
    03:00 +19°C° 0 mm 5 m/s 700 mmHg 59%
    04:00 +17°C° 0 mm 6 m/s 700 mmHg 63%
    05:00 +17°C° 0 mm 5 m/s 700 mmHg 63%
    06:00 +17°C° 0 mm 5 m/s 701 mmHg 64%
    07:00 +17°C° 0 mm 5 m/s 701 mmHg 65%
    08:00 +17°C° 0.1 mm 5 m/s 701 mmHg 67%
    09:00 +16°C° 0.1 mm 5 m/s 701 mmHg 69%
    10:00 +16°C° 0.1 mm 5 m/s 701 mmHg 71%
    11:00 +16°C° 0.1 mm 5 m/s 701 mmHg 72%
    12:00 +16°C° 0.1 mm 5 m/s 700 mmHg 73%
    13:00 +16°C° 0.1 mm 5 m/s 700 mmHg 74%
    14:00 +15°C° 0 mm 5 m/s 700 mmHg 75%
    15:00 +15°C° 0 mm 5 m/s 700 mmHg 75%
    16:00 +15°C° 0 mm 4 m/s 700 mmHg 75%
    17:00 +15°C° 0.1 mm 4 m/s 700 mmHg 78%
    18:00 +15°C° 0.1 mm 4 m/s 701 mmHg 80%
    19:00 +16°C° 0.1 mm 3 m/s 701 mmHg 82%
    20:00 +14°C° 0.4 mm 3 m/s 702 mmHg 84%
    21:00 +14°C° 0.4 mm 3 m/s 702 mmHg 85%
    22:00 +15°C° 0.4 mm 2 m/s 702 mmHg 86%
    23:00 +15°C° 0.1 mm 2 m/s 701 mmHg 87%

    27 Março, Quarta-feira

    Tempo Temperatura Precipitação Vento Pressão Humidade
    00:00 +15°C° 0.1 mm 2 m/s 701 mmHg 88%
    01:00 +14°C° 0.1 mm 3 m/s 701 mmHg 89%
    02:00 +15°C° 0 mm 2 m/s 700 mmHg 90%
    03:00 +15°C° 0 mm 2 m/s 700 mmHg 91%
    04:00 +15°C° 0 mm 2 m/s 700 mmHg 92%
    05:00 +15°C° 0 mm 2 m/s 700 mmHg 91%
    06:00 +15°C° 0 mm 2 m/s 700 mmHg 90%
    07:00 +15°C° 0 mm 2 m/s 700 mmHg 88%
    08:00 +16°C° 0 mm 2 m/s 700 mmHg 84%
    09:00 +17°C° 0 mm 3 m/s 700 mmHg 79%
    10:00 +18°C° 0 mm 4 m/s 700 mmHg 74%
    11:00 +19°C° 0 mm 3 m/s 699 mmHg 70%
    12:00 +20°C° 0 mm 3 m/s 699 mmHg 66%
    13:00 +21°C° 0 mm 2 m/s 698 mmHg 62%
    14:00 +21°C° 0 mm 2 m/s 698 mmHg 60%
    15:00 +21°C° 0 mm 2 m/s 698 mmHg 57%
    16:00 +23°C° 0 mm 1 m/s 698 mmHg 55%
    17:00 +21°C° 0 mm 2 m/s 699 mmHg 60%
    18:00 +20°C° 0 mm 3 m/s 699 mmHg 65%
    19:00 +19°C° 0 mm 4 m/s 700 mmHg 70%
    20:00 +19°C° 0 mm 4 m/s 700 mmHg 74%
    21:00 +18°C° 0 mm 4 m/s 700 mmHg 78%
    22:00 +18°C° 0 mm 4 m/s 700 mmHg 82%
    23:00 +17°C° 0 mm 4 m/s 699 mmHg 83%
    Mostrar mais